When you browse on this site, cookies collect data to enhance your experience and personalize the content and advertising you see.
Visit our Privacy Policy to learn more. By continuing to use the site, you agree to this use of cookies and data.
  • In Belgien
  • Länderverzeichnis
  • Für 7 Tage
  • Wassertemperatur
  • Satellitenkarten
  • Wetterkarte
  • Widgets
  • user-avatar
    Anmelden

    Stündliche Wetter Zakrupe

    Heute, 23 März, Samstag

    Zeit Temperatur Niederschläge Wind Luftdruck Luftfeuchtigkeit
    00:00 -1°C° 0 mm 5 m/S 749 mmHg 90%
    01:00 -1°C° 0 mm 4 m/S 750 mmHg 91%
    02:00 0°C° 0 mm 3 m/S 751 mmHg 92%
    03:00 -1°C° 0 mm 3 m/S 752 mmHg 93%
    04:00 -1°C° 0 mm 3 m/S 752 mmHg 94%
    05:00 -2°C° 0 mm 2 m/S 753 mmHg 95%
    06:00 -1°C° 0 mm 2 m/S 754 mmHg 96%
    07:00 -1°C° 0 mm 2 m/S 754 mmHg 96%
    08:00 +2°C° 0 mm 1 m/S 755 mmHg 97%
    09:00 +2°C° 0 mm 1 m/S 755 mmHg 96%
    10:00 +2°C° 0 mm 1 m/S 755 mmHg 94%
    11:00 +3°C° 0 mm 1 m/S 754 mmHg 93%
    12:00 +3°C° 0 mm 1 m/S 754 mmHg 93%
    13:00 +3°C° 0 mm 1 m/S 754 mmHg 93%
    14:00 +3°C° 0 mm 1 m/S 754 mmHg 92%
    15:00 +3°C° 0 mm 1 m/S 754 mmHg 92%
    16:00 +3°C° 0 mm 1 m/S 753 mmHg 91%
    17:00 +1°C° 0 mm 2 m/S 753 mmHg 91%
    18:00 +1°C° 0 mm 2 m/S 752 mmHg 91%
    19:00 -1°C° 0 mm 2 m/S 752 mmHg 91%
    20:00 -2°C° 0 mm 3 m/S 751 mmHg 91%
    21:00 -2°C° 0 mm 3 m/S 751 mmHg 91%
    22:00 -2°C° 0 mm 4 m/S 750 mmHg 90%
    23:00 -2°C° 0 mm 4 m/S 749 mmHg 89%

    Morgen, 24 März, Sonntag

    Zeit Temperatur Niederschläge Wind Luftdruck Luftfeuchtigkeit
    00:00 -2°C° 0.1 mm 4 m/S 748 mmHg 89%
    01:00 -2°C° 0.1 mm 5 m/S 747 mmHg 89%
    02:00 -1°C° 0.1 mm 5 m/S 746 mmHg 88%
    03:00 -1°C° 0.5 mm 5 m/S 746 mmHg 89%
    04:00 -1°C° 0.5 mm 5 m/S 745 mmHg 90%
    05:00 -1°C° 0.5 mm 5 m/S 744 mmHg 91%
    06:00 -1°C° 0.3 mm 4 m/S 744 mmHg 92%
    07:00 -1°C° 0.3 mm 4 m/S 743 mmHg 93%
    08:00 -1°C° 0.3 mm 4 m/S 743 mmHg 95%
    09:00 +1°C° 0 mm 3 m/S 742 mmHg 95%
    10:00 +1°C° 0 mm 3 m/S 742 mmHg 95%
    11:00 +2°C° 0 mm 3 m/S 742 mmHg 95%
    12:00 +1°C° 0.3 mm 4 m/S 742 mmHg 93%
    13:00 +1°C° 0.3 mm 4 m/S 741 mmHg 91%
    14:00 +1°C° 0.3 mm 4 m/S 741 mmHg 89%
    15:00 0°C° 0.1 mm 4 m/S 741 mmHg 87%
    16:00 0°C° 0.1 mm 4 m/S 741 mmHg 84%
    17:00 +1°C° 0.1 mm 3 m/S 741 mmHg 82%
    18:00 0°C° 0 mm 3 m/S 742 mmHg 84%
    19:00 -1°C° 0 mm 3 m/S 742 mmHg 85%
    20:00 -2°C° 0 mm 3 m/S 742 mmHg 86%
    21:00 -2°C° 0 mm 3 m/S 742 mmHg 86%
    22:00 -4°C° 0 mm 3 m/S 742 mmHg 87%
    23:00 -4°C° 0 mm 3 m/S 742 mmHg 87%

    übermorgen, 25 März, Montag

    Zeit Temperatur Niederschläge Wind Luftdruck Luftfeuchtigkeit
    00:00 -4°C° 0 mm 3 m/S 742 mmHg 88%
    01:00 -5°C° 0 mm 3 m/S 742 mmHg 89%
    02:00 -5°C° 0 mm 3 m/S 742 mmHg 89%
    03:00 -5°C° 0 mm 3 m/S 742 mmHg 90%
    04:00 -5°C° 0 mm 3 m/S 742 mmHg 90%
    05:00 -5°C° 0 mm 3 m/S 742 mmHg 91%
    06:00 -4°C° 0 mm 3 m/S 742 mmHg 89%
    07:00 -2°C° 0 mm 3 m/S 742 mmHg 86%
    08:00 -1°C° 0 mm 3 m/S 742 mmHg 84%
    09:00 -2°C° 0 mm 4 m/S 742 mmHg 84%
    10:00 -1°C° 0 mm 4 m/S 742 mmHg 84%
    11:00 0°C° 0 mm 4 m/S 742 mmHg 83%
    12:00 0°C° 0 mm 4 m/S 742 mmHg 82%
    13:00 +2°C° 0 mm 3 m/S 741 mmHg 80%
    14:00 +2°C° 0 mm 3 m/S 741 mmHg 78%
    15:00 +2°C° 0 mm 3 m/S 741 mmHg 80%
    16:00 +2°C° 0 mm 2 m/S 741 mmHg 82%
    17:00 +3°C° 0 mm 1 m/S 741 mmHg 85%
    18:00 +2°C° 0 mm 1 m/S 742 mmHg 86%
    19:00 +2°C° 0 mm 1 m/S 742 mmHg 87%
    20:00 +1°C° 0 mm 1 m/S 742 mmHg 88%
    21:00 -1°C° 0 mm 2 m/S 742 mmHg 89%
    22:00 -1°C° 0 mm 2 m/S 741 mmHg 90%
    23:00 -1°C° 0 mm 2 m/S 741 mmHg 90%

    26 März, Dienstag

    Zeit Temperatur Niederschläge Wind Luftdruck Luftfeuchtigkeit
    00:00 -2°C° 0 mm 2 m/S 741 mmHg 88%
    01:00 -2°C° 0 mm 3 m/S 741 mmHg 86%
    02:00 -2°C° 0 mm 3 m/S 740 mmHg 84%
    03:00 -2°C° 0 mm 3 m/S 740 mmHg 85%
    04:00 -4°C° 0 mm 3 m/S 740 mmHg 86%
    05:00 -4°C° 0 mm 3 m/S 739 mmHg 87%
    06:00 -2°C° 0 mm 3 m/S 739 mmHg 87%
    07:00 -1°C° 0 mm 3 m/S 739 mmHg 86%
    08:00 -2°C° 0 mm 4 m/S 739 mmHg 85%
    09:00 -1°C° 0.2 mm 4 m/S 739 mmHg 85%
    10:00 0°C° 0.2 mm 4 m/S 739 mmHg 85%
    11:00 0°C° 0.2 mm 4 m/S 739 mmHg 85%
    12:00 0°C° 0.2 mm 4 m/S 739 mmHg 85%
    13:00 0°C° 0.2 mm 4 m/S 739 mmHg 84%
    14:00 0°C° 0.2 mm 4 m/S 740 mmHg 84%
    15:00 -1°C° 0.2 mm 4 m/S 740 mmHg 84%
    16:00 -2°C° 0.2 mm 4 m/S 740 mmHg 84%
    17:00 -4°C° 0.2 mm 5 m/S 740 mmHg 83%
    18:00 -5°C° 0 mm 5 m/S 741 mmHg 82%
    19:00 -4°C° 0 mm 4 m/S 741 mmHg 81%
    20:00 -5°C° 0 mm 4 m/S 741 mmHg 81%
    21:00 -5°C° 0 mm 4 m/S 741 mmHg 81%
    22:00 -6°C° 0 mm 5 m/S 741 mmHg 81%
    23:00 -6°C° 0 mm 5 m/S 741 mmHg 81%

    27 März, Mittwoch

    Zeit Temperatur Niederschläge Wind Luftdruck Luftfeuchtigkeit
    00:00 -7°C° 0.1 mm 5 m/S 741 mmHg 82%
    01:00 -7°C° 0.1 mm 5 m/S 741 mmHg 83%
    02:00 -8°C° 0.1 mm 6 m/S 741 mmHg 84%
    03:00 -6°C° 0.2 mm 6 m/S 742 mmHg 84%
    04:00 -6°C° 0.2 mm 6 m/S 742 mmHg 84%
    05:00 -6°C° 0.2 mm 6 m/S 742 mmHg 84%
    06:00 -5°C° 0.1 mm 6 m/S 743 mmHg 83%
    07:00 -6°C° 0.1 mm 7 m/S 743 mmHg 81%
    08:00 -6°C° 0.1 mm 7 m/S 744 mmHg 79%
    09:00 -6°C° 0 mm 7 m/S 745 mmHg 78%
    10:00 -6°C° 0 mm 7 m/S 745 mmHg 76%
    11:00 -4°C° 0 mm 7 m/S 746 mmHg 75%
    12:00 -4°C° 0 mm 7 m/S 747 mmHg 73%
    13:00 -4°C° 0 mm 7 m/S 747 mmHg 72%
    14:00 -3°C° 0 mm 6 m/S 748 mmHg 70%
    15:00 -4°C° 0 mm 6 m/S 748 mmHg 70%
    16:00 -4°C° 0 mm 5 m/S 749 mmHg 70%
    17:00 -4°C° 0 mm 5 m/S 750 mmHg 70%
    18:00 -4°C° 0 mm 4 m/S 750 mmHg 74%
    19:00 -4°C° 0 mm 4 m/S 750 mmHg 77%
    20:00 -5°C° 0 mm 3 m/S 751 mmHg 80%
    21:00 -6°C° 0 mm 3 m/S 751 mmHg 81%
    22:00 -6°C° 0 mm 3 m/S 751 mmHg 82%
    23:00 -6°C° 0 mm 3 m/S 751 mmHg 83%

    28 März, Donnerstag

    Zeit Temperatur Niederschläge Wind Luftdruck Luftfeuchtigkeit
    00:00 -6°C° 0 mm 3 m/S 751 mmHg 81%
    01:00 -6°C° 0 mm 3 m/S 750 mmHg 80%
    02:00 -6°C° 0 mm 3 m/S 750 mmHg 79%
    03:00 -5°C° 0.1 mm 3 m/S 750 mmHg 80%
    04:00 -5°C° 0.1 mm 4 m/S 749 mmHg 81%
    05:00 -4°C° 0.1 mm 4 m/S 749 mmHg 81%
    06:00 -5°C° 0 mm 5 m/S 749 mmHg 82%
    07:00 -4°C° 0 mm 5 m/S 748 mmHg 82%
    08:00 -2°C° 0 mm 5 m/S 748 mmHg 82%
    09:00 -2°C° 0 mm 5 m/S 748 mmHg 80%
    10:00 -1°C° 0 mm 5 m/S 747 mmHg 79%
    11:00 -1°C° 0 mm 5 m/S 747 mmHg 77%
    12:00 -1°C° 0.1 mm 5 m/S 747 mmHg 78%
    13:00 0°C° 0.1 mm 5 m/S 746 mmHg 79%
    14:00 0°C° 0.1 mm 5 m/S 745 mmHg 79%
    15:00 0°C° 0.5 mm 5 m/S 745 mmHg 81%
    16:00 0°C° 0.5 mm 5 m/S 744 mmHg 83%
    17:00 0°C° 0.5 mm 5 m/S 744 mmHg 84%
    18:00 -1°C° 0.1 mm 5 m/S 743 mmHg 85%
    19:00 -1°C° 0.1 mm 5 m/S 743 mmHg 85%
    20:00 -2°C° 0.1 mm 4 m/S 743 mmHg 85%
    21:00 -1°C° 0.2 mm 5 m/S 742 mmHg 86%
    22:00 -1°C° 0.2 mm 5 m/S 742 mmHg 86%
    23:00 -1°C° 0.2 mm 6 m/S 742 mmHg 86%
    Mehr zeigen